RDBK12 YMPC-YSHW

Flight info

Callsign RDBK12
Flight time 2h 42m
Altitude 5500
Route YMPC DCT YMAY DCT YSHW
Aircraft H60/M-SDFGRY/LB1

Departure

Time 2026-05-05 10:12
Airport RAAF Williams, Point Cook Base (YMPC)

Arrival

Time 2026-05-05 12:54
Airport Holsworthy (Military) Airport (YSHW)
Time Latitude Longitude Altitude Speed Heading
2026-05-05 10:02 -37.87440 144.82831 531 ft 109 kts 57°
2026-05-05 10:03 -37.87037 144.83668 527 ft 113 kts 75°
2026-05-05 10:03 -37.86728 144.84521 491 ft 101 kts 79°
2026-05-05 10:03 -37.86507 144.85341 440 ft 100 kts 83°
2026-05-05 10:03 -37.86312 144.86248 440 ft 113 kts 84°
2026-05-05 10:04 -37.86138 144.87214 469 ft 109 kts 86°
2026-05-05 10:04 -37.86004 144.88168 486 ft 110 kts 86°
2026-05-05 10:04 -37.85817 144.89140 466 ft 119 kts 68°
2026-05-05 10:04 -37.85238 144.89891 379 ft 131 kts 21°
2026-05-05 10:05 -37.84323 144.89902 153 ft 120 kts 352°
2026-05-05 10:05 -37.83632 144.89764 147 ft 97 kts 359°
2026-05-05 10:05 -37.82944 144.89829 189 ft 104 kts 21°
2026-05-05 10:05 -37.82389 144.90420 81 ft 115 kts 65°
2026-05-05 10:06 -37.82069 144.91380 56 ft 120 kts 80°
2026-05-05 10:06 -37.81942 144.92426 73 ft 121 kts 97°
2026-05-05 10:06 -37.82084 144.93466 64 ft 108 kts 111°
2026-05-05 10:06 -37.82220 144.94188 175 ft 74 kts 110°
2026-05-05 10:07 -37.82353 144.94874 196 ft 90 kts 107°
2026-05-05 10:07 -37.82286 144.95657 105 ft 92 kts 62°
2026-05-05 10:07 -37.82058 144.96182 123 ft 61 kts 69°
2026-05-05 10:07 -37.81880 144.96769 122 ft 79 kts 98°
2026-05-05 10:08 -37.82049 144.97477 134 ft 89 kts 156°
2026-05-05 10:08 -37.82646 144.97697 305 ft 100 kts 182°
2026-05-05 10:08 -37.83301 144.97736 456 ft 61 kts 174°
2026-05-05 10:08 -37.83796 144.97844 359 ft 85 kts 174°
2026-05-05 10:09 -37.84426 144.97970 525 ft 90 kts 174°
2026-05-05 10:09 -37.84799 144.98290 485 ft 48 kts 62°
2026-05-05 10:09 -37.84559 144.98404 336 ft 54 kts 333°
2026-05-05 10:09 -37.84163 144.98249 353 ft 75 kts 334°
2026-05-05 10:10 -37.83676 144.97937 414 ft 67 kts 332°
2026-05-05 10:10 -37.83463 144.97650 291 ft 44 kts 322°
2026-05-05 10:10 -37.83191 144.97287 291 ft 68 kts 319°
2026-05-05 10:10 -37.82762 144.97079 286 ft 57 kts 66°
2026-05-05 10:11 -37.82746 144.97269 218 ft 31 kts 153°
2026-05-05 10:11 -37.82662 144.97606 157 ft 78 kts 70°
2026-05-05 10:11 -37.82667 144.97695 300 ft 37 kts 109°
2026-05-05 10:11 -37.82497 144.98315 407 ft 102 kts 60°
2026-05-05 10:12 -37.81912 144.98881 397 ft 121 kts 19°
2026-05-05 10:12 -37.81128 144.99225 653 ft 118 kts 29°
2026-05-05 10:12 -37.80410 144.99588 825 ft 72 kts 20°
2026-05-05 10:12 -37.79994 144.99719 397 ft 123 kts 21°
2026-05-05 10:13 -37.79138 145.00103 684 ft 127 kts 15°
2026-05-05 10:13 -37.78338 145.00409 925 ft 113 kts 27°
2026-05-05 10:13 -37.77667 145.01094 618 ft 121 kts 31°
2026-05-05 10:13 -37.76936 145.01542 794 ft 117 kts 28°
2026-05-05 10:14 -37.76269 145.01951 1117 ft 95 kts 39°
2026-05-05 10:14 -37.75907 145.02173 2187 ft 27 kts 32°
2026-05-05 10:14 -37.75650 145.02350 2457 ft 70 kts 33°
2026-05-05 10:14 -37.75127 145.02777 2414 ft 84 kts 37°
2026-05-05 10:15 -37.74713 145.03120 2359 ft 73 kts 37°
2026-05-05 10:15 -37.74275 145.03512 2368 ft 83 kts 42°
2026-05-05 10:15 -37.73802 145.03968 2358 ft 88 kts 42°
2026-05-05 10:15 -37.73311 145.04468 2330 ft 93 kts 43°
2026-05-05 10:16 -37.72781 145.05035 2323 ft 110 kts 43°
2026-05-05 10:16 -37.72175 145.05712 2329 ft 121 kts 43°
2026-05-05 10:16 -37.71476 145.06457 2424 ft 142 kts 39°
2026-05-05 10:16 -37.70659 145.07224 2368 ft 146 kts 37°
2026-05-05 10:17 -37.69874 145.07949 2384 ft 143 kts 37°
2026-05-05 10:17 -37.69091 145.08682 2398 ft 141 kts 37°
2026-05-05 10:17 -37.68317 145.09401 2399 ft 139 kts 37°
2026-05-05 10:17 -37.67526 145.10135 2410 ft 141 kts 37°
2026-05-05 10:18 -37.66738 145.10875 2635 ft 141 kts 38°
2026-05-05 10:18 -37.65948 145.11629 2894 ft 143 kts 38°
2026-05-05 10:18 -37.65158 145.12397 3132 ft 144 kts 39°
2026-05-05 10:18 -37.64370 145.13175 3345 ft 145 kts 39°
2026-05-05 10:19 -37.63581 145.13964 3565 ft 145 kts 40°
2026-05-05 10:19 -37.62794 145.14762 3830 ft 145 kts 41°
2026-05-05 10:19 -37.62010 145.15568 4068 ft 146 kts 41°
2026-05-05 10:19 -37.61226 145.16381 4294 ft 146 kts 41°
2026-05-05 10:20 -37.60440 145.17191 4491 ft 146 kts 40°
2026-05-05 10:20 -37.59636 145.17992 4670 ft 147 kts 40°
2026-05-05 10:20 -37.58833 145.18798 4910 ft 147 kts 40°
2026-05-05 10:20 -37.58030 145.19608 5135 ft 148 kts 41°
2026-05-05 10:21 -37.57226 145.20426 5322 ft 149 kts 41°
2026-05-05 10:21 -37.56421 145.21251 5478 ft 150 kts 41°
2026-05-05 10:21 -37.55611 145.22083 5427 ft 153 kts 41°
2026-05-05 10:21 -37.55063 145.22649 5435 ft 153 kts 41°
2026-05-05 10:22 -37.54285 145.23542 5564 ft 150 kts 46°
2026-05-05 10:22 -37.53528 145.24473 5504 ft 156 kts 46°
2026-05-05 10:22 -37.52731 145.25459 5361 ft 163 kts 46°
2026-05-05 10:22 -37.51914 145.26457 5075 ft 167 kts 45°
2026-05-05 10:23 -37.51071 145.27463 4979 ft 166 kts 44°
2026-05-05 10:23 -37.50227 145.28445 4945 ft 164 kts 43°
2026-05-05 10:23 -37.49118 145.29727 4931 ft 162 kts 43°
2026-05-05 10:23 -37.48562 145.30379 4926 ft 161 kts 43°
2026-05-05 10:24 -37.47745 145.31338 4906 ft 160 kts 43°
2026-05-05 10:24 -37.46932 145.32294 4889 ft 160 kts 43°
2026-05-05 10:24 -37.46120 145.33248 4874 ft 160 kts 43°
2026-05-05 10:24 -37.45318 145.34189 4850 ft 161 kts 43°
2026-05-05 10:25 -37.44491 145.35163 4701 ft 164 kts 43°
2026-05-05 10:25 -37.43654 145.36169 4309 ft 170 kts 43°
2026-05-05 10:25 -37.42819 145.37159 4240 ft 156 kts 43°
2026-05-05 10:25 -37.42086 145.38062 4606 ft 144 kts 44°
2026-05-05 10:26 -37.41353 145.38942 5042 ft 146 kts 44°
2026-05-05 10:26 -37.40615 145.39825 5409 ft 147 kts 44°
2026-05-05 10:26 -37.39869 145.40723 5667 ft 148 kts 44°
2026-05-05 10:26 -37.39119 145.41625 5700 ft 150 kts 44°
2026-05-05 10:27 -37.38362 145.42535 5948 ft 151 kts 44°
2026-05-05 10:27 -37.37594 145.43456 6178 ft 152 kts 44°
2026-05-05 10:27 -37.36818 145.44404 6047 ft 160 kts 45°
2026-05-05 10:27 -37.36036 145.45356 5734 ft 157 kts 45°
2026-05-05 10:28 -37.35254 145.46303 5680 ft 157 kts 44°
2026-05-05 10:28 -37.34470 145.47242 5619 ft 155 kts 44°
2026-05-05 10:28 -37.33688 145.48168 5773 ft 157 kts 44°
2026-05-05 10:28 -37.32903 145.49129 6036 ft 158 kts 44°
2026-05-05 10:29 -37.32112 145.50100 6272 ft 160 kts 44°
2026-05-05 10:29 -37.31313 145.51077 6476 ft 160 kts 44°
2026-05-05 10:29 -37.30505 145.52062 6649 ft 162 kts 44°
2026-05-05 10:29 -37.29692 145.53049 6739 ft 162 kts 44°
2026-05-05 10:30 -37.28871 145.54038 6751 ft 164 kts 44°
2026-05-05 10:30 -37.28045 145.55028 6859 ft 164 kts 44°
2026-05-05 10:30 -37.27227 145.56032 6974 ft 165 kts 44°
2026-05-05 10:30 -37.26411 145.57047 7089 ft 166 kts 44°
2026-05-05 10:31 -37.25591 145.58064 7186 ft 166 kts 44°
2026-05-05 10:31 -37.24769 145.59082 7164 ft 166 kts 44°
2026-05-05 10:31 -37.23954 145.60088 7182 ft 166 kts 44°
2026-05-05 10:31 -37.23131 145.61099 7272 ft 166 kts 44°
2026-05-05 10:32 -37.22304 145.62113 7265 ft 167 kts 44°
2026-05-05 10:32 -37.21483 145.63125 7212 ft 166 kts 44°
2026-05-05 10:32 -37.20655 145.64137 7206 ft 167 kts 44°
2026-05-05 10:32 -37.19834 145.65135 7204 ft 167 kts 44°
2026-05-05 10:33 -37.19002 145.66145 7206 ft 166 kts 44°
2026-05-05 10:33 -37.18170 145.67156 7205 ft 166 kts 44°
2026-05-05 10:33 -37.17339 145.68165 7209 ft 166 kts 44°
2026-05-05 10:33 -37.16505 145.69176 7212 ft 166 kts 44°
2026-05-05 10:34 -37.15672 145.70187 7217 ft 166 kts 44°
2026-05-05 10:34 -37.14838 145.71198 7216 ft 167 kts 44°
2026-05-05 10:34 -37.14006 145.72207 7218 ft 166 kts 44°
2026-05-05 10:34 -37.13172 145.73219 7223 ft 167 kts 44°
2026-05-05 10:35 -37.12341 145.74227 7234 ft 167 kts 44°
2026-05-05 10:35 -37.11508 145.75238 7249 ft 166 kts 44°
2026-05-05 10:35 -37.10677 145.76247 7259 ft 166 kts 44°
2026-05-05 10:35 -37.09841 145.77262 7258 ft 167 kts 44°
2026-05-05 10:36 -37.09008 145.78272 7262 ft 167 kts 44°
2026-05-05 10:36 -37.08177 145.79283 7278 ft 166 kts 44°
2026-05-05 10:36 -37.07347 145.80296 7290 ft 167 kts 44°
2026-05-05 10:36 -37.06524 145.81292 7224 ft 166 kts 44°
2026-05-05 10:37 -37.05681 145.82289 7164 ft 167 kts 44°
2026-05-05 10:37 -37.04837 145.83286 7138 ft 167 kts 44°
2026-05-05 10:37 -37.03993 145.84281 7131 ft 166 kts 44°
2026-05-05 10:37 -37.03148 145.85278 7125 ft 167 kts 44°
2026-05-05 10:38 -37.02305 145.86275 7126 ft 167 kts 44°
2026-05-05 10:38 -37.01462 145.87271 7126 ft 166 kts 44°
2026-05-05 10:38 -37.00618 145.88269 7123 ft 167 kts 44°
2026-05-05 10:38 -36.99776 145.89266 7118 ft 167 kts 44°
2026-05-05 10:39 -36.98934 145.90262 7117 ft 167 kts 44°
2026-05-05 10:39 -36.98091 145.91261 7122 ft 167 kts 44°
2026-05-05 10:39 -36.97247 145.92259 7120 ft 167 kts 44°
2026-05-05 10:39 -36.96403 145.93257 7121 ft 167 kts 44°
2026-05-05 10:40 -36.95560 145.94253 7115 ft 167 kts 44°
2026-05-05 10:40 -36.94716 145.95250 7118 ft 167 kts 44°
2026-05-05 10:40 -36.93871 145.96246 7117 ft 167 kts 44°
2026-05-05 10:40 -36.93040 145.97228 7110 ft 167 kts 44°
2026-05-05 10:41 -36.92196 145.98225 7120 ft 167 kts 44°
2026-05-05 10:41 -36.91350 145.99214 7118 ft 167 kts 44°
2026-05-05 10:41 -36.90503 146.00201 7120 ft 167 kts 44°
2026-05-05 10:41 -36.89655 146.01189 7122 ft 167 kts 44°
2026-05-05 10:42 -36.87958 146.03165 7121 ft 167 kts 44°
2026-05-05 10:42 -36.87111 146.04150 7118 ft 167 kts 44°
2026-05-05 10:42 -36.86266 146.05131 7127 ft 165 kts 44°
2026-05-05 10:43 -36.85426 146.06105 7123 ft 165 kts 44°
2026-05-05 10:43 -36.84588 146.07086 7110 ft 166 kts 44°
2026-05-05 10:43 -36.83742 146.08063 7123 ft 165 kts 44°
2026-05-05 10:43 -36.82899 146.09039 7122 ft 165 kts 44°
2026-05-05 10:44 -36.82056 146.10013 7126 ft 164 kts 44°
2026-05-05 10:44 -36.81214 146.10985 7127 ft 164 kts 44°
2026-05-05 10:44 -36.80372 146.11958 7116 ft 164 kts 44°
2026-05-05 10:44 -36.79529 146.12932 7121 ft 165 kts 44°
2026-05-05 10:45 -36.78691 146.13902 7125 ft 165 kts 44°
2026-05-05 10:45 -36.77859 146.14866 7122 ft 165 kts 44°
2026-05-05 10:45 -36.77010 146.15836 7117 ft 165 kts 44°
2026-05-05 10:45 -36.76156 146.16800 7119 ft 165 kts 44°
2026-05-05 10:46 -36.75303 146.17762 7123 ft 166 kts 44°
2026-05-05 10:46 -36.74447 146.18727 7119 ft 165 kts 44°
2026-05-05 10:46 -36.73593 146.19689 7118 ft 165 kts 44°
2026-05-05 10:46 -36.72737 146.20655 7122 ft 166 kts 44°
2026-05-05 10:47 -36.71883 146.21619 7121 ft 166 kts 44°
2026-05-05 10:47 -36.71028 146.22583 7121 ft 166 kts 44°
2026-05-05 10:47 -36.70171 146.23550 7123 ft 166 kts 44°
2026-05-05 10:47 -36.69317 146.24515 7117 ft 165 kts 44°
2026-05-05 10:48 -36.68461 146.25481 7120 ft 165 kts 44°
2026-05-05 10:48 -36.67607 146.26445 7116 ft 165 kts 45°
2026-05-05 10:48 -36.66757 146.27412 7119 ft 165 kts 45°
2026-05-05 10:48 -36.65905 146.28382 7122 ft 166 kts 45°
2026-05-05 10:49 -36.65067 146.29335 7118 ft 166 kts 45°
2026-05-05 10:49 -36.64215 146.30302 7118 ft 166 kts 45°
2026-05-05 10:49 -36.63364 146.31270 7121 ft 165 kts 45°
2026-05-05 10:49 -36.62519 146.32236 7115 ft 165 kts 45°
2026-05-05 10:50 -36.61665 146.33195 7117 ft 166 kts 45°
2026-05-05 10:50 -36.60806 146.34153 7117 ft 166 kts 45°
2026-05-05 10:50 -36.59947 146.35109 7115 ft 166 kts 45°
2026-05-05 10:50 -36.59089 146.36065 7117 ft 166 kts 45°
2026-05-05 10:51 -36.58232 146.37021 7113 ft 165 kts 45°
2026-05-05 10:51 -36.57372 146.37979 7110 ft 165 kts 45°
2026-05-05 10:51 -36.56526 146.38922 7109 ft 165 kts 45°
2026-05-05 10:51 -36.55668 146.39878 7112 ft 165 kts 45°
2026-05-05 10:52 -36.54811 146.40834 7118 ft 165 kts 45°
2026-05-05 10:52 -36.53953 146.41791 7115 ft 166 kts 45°
2026-05-05 10:52 -36.53096 146.42746 7115 ft 166 kts 45°
2026-05-05 10:52 -36.52238 146.43702 7113 ft 166 kts 45°
2026-05-05 10:53 -36.51380 146.44657 7108 ft 165 kts 45°
2026-05-05 10:53 -36.50523 146.45611 7112 ft 166 kts 45°
2026-05-05 10:53 -36.49672 146.46561 6956 ft 163 kts 45°
2026-05-05 10:53 -36.48827 146.47507 6666 ft 163 kts 45°
2026-05-05 10:54 -36.47996 146.48453 6360 ft 161 kts 46°
2026-05-05 10:54 -36.47193 146.49415 5997 ft 160 kts 46°
2026-05-05 10:54 -36.46393 146.50373 5752 ft 160 kts 46°
2026-05-05 10:54 -36.45597 146.51330 5595 ft 159 kts 46°
2026-05-05 10:55 -36.44802 146.52290 5453 ft 161 kts 46°
2026-05-05 10:55 -36.43995 146.53250 5600 ft 161 kts 46°
2026-05-05 10:55 -36.43187 146.54204 5540 ft 161 kts 46°
2026-05-05 10:55 -36.42379 146.55158 5545 ft 161 kts 46°
2026-05-05 10:56 -36.41576 146.56120 5550 ft 160 kts 46°
2026-05-05 10:56 -36.40772 146.57080 5552 ft 160 kts 47°
2026-05-05 10:56 -36.39966 146.58035 5550 ft 160 kts 47°
2026-05-05 10:56 -36.39155 146.58986 5550 ft 160 kts 46°
2026-05-05 10:57 -36.38340 146.59929 5547 ft 160 kts 46°
2026-05-05 10:57 -36.37521 146.60867 5548 ft 160 kts 46°
2026-05-05 10:57 -36.36695 146.61799 5547 ft 161 kts 45°
2026-05-05 10:57 -36.35872 146.62716 5546 ft 160 kts 45°
2026-05-05 10:58 -36.35037 146.63639 5545 ft 161 kts 45°
2026-05-05 10:58 -36.34198 146.64555 5544 ft 161 kts 44°
2026-05-05 10:58 -36.33356 146.65462 5546 ft 161 kts 44°
2026-05-05 10:58 -36.32511 146.66363 5545 ft 161 kts 44°
2026-05-05 10:59 -36.31659 146.67259 5545 ft 161 kts 43°
2026-05-05 10:59 -36.30805 146.68149 5544 ft 161 kts 43°
2026-05-05 10:59 -36.29947 146.69037 5546 ft 160 kts 43°
2026-05-05 10:59 -36.29083 146.69921 5546 ft 161 kts 42°
2026-05-05 11:00 -36.28224 146.70794 5551 ft 161 kts 42°
2026-05-05 11:00 -36.27357 146.71671 5549 ft 161 kts 42°
2026-05-05 11:00 -36.26489 146.72546 5550 ft 161 kts 42°
2026-05-05 11:00 -36.25632 146.73403 5548 ft 161 kts 42°
2026-05-05 11:01 -36.24772 146.74259 5549 ft 161 kts 41°
2026-05-05 11:01 -36.23900 146.75122 5549 ft 160 kts 41°
2026-05-05 11:01 -36.23022 146.75982 5550 ft 161 kts 41°
2026-05-05 11:01 -36.22180 146.76801 5553 ft 160 kts 41°
2026-05-05 11:02 -36.21325 146.77635 5556 ft 161 kts 41°
2026-05-05 11:02 -36.20470 146.78469 5555 ft 160 kts 41°
2026-05-05 11:02 -36.19591 146.79323 5554 ft 160 kts 41°
2026-05-05 11:02 -36.18708 146.80171 5555 ft 161 kts 40°
2026-05-05 11:03 -36.17830 146.81029 5553 ft 161 kts 40°
2026-05-05 11:03 -36.16962 146.81898 5550 ft 161 kts 40°
2026-05-05 11:03 -36.16092 146.82765 5553 ft 161 kts 41°
2026-05-05 11:03 -36.15216 146.83626 5551 ft 160 kts 40°
2026-05-05 11:04 -36.14341 146.84483 5556 ft 160 kts 40°
2026-05-05 11:04 -36.13464 146.85326 5554 ft 159 kts 40°
2026-05-05 11:04 -36.12598 146.86162 5235 ft 156 kts 40°
2026-05-05 11:04 -36.11744 146.87000 4699 ft 156 kts 40°
2026-05-05 11:05 -36.10922 146.87860 4372 ft 155 kts 46°
2026-05-05 11:05 -36.10116 146.88781 3538 ft 144 kts 45°
2026-05-05 11:05 -36.09535 146.89620 3137 ft 120 kts 57°
2026-05-05 11:05 -36.09017 146.90574 2710 ft 145 kts 63°
2026-05-05 11:06 -36.08592 146.91742 2318 ft 155 kts 77°
2026-05-05 11:06 -36.08308 146.93042 2105 ft 152 kts 93°
2026-05-05 11:06 -36.08039 146.94329 1844 ft 153 kts 90°
2026-05-05 11:06 -36.07793 146.95585 1434 ft 151 kts 89°
2026-05-05 11:07 -36.07540 146.96762 1195 ft 130 kts 54°
2026-05-05 11:07 -36.06960 146.97320 1160 ft 93 kts 317°
2026-05-05 11:07 -36.06581 146.97030 749 ft 57 kts 268°
2026-05-05 11:07 -36.06599 146.96578 582 ft 46 kts 266°
2026-05-05 11:08 -36.06637 146.96218 559 ft 32 kts 268°
2026-05-05 11:08 -36.06648 146.96116 538 ft 7 kts 267°
2026-05-05 11:08 -36.06740 146.96081 546 ft 14 kts 213°
2026-05-05 11:08 -36.06779 146.95964 548 ft 26 kts 263°
2026-05-05 11:09 -36.06806 146.95748 552 ft 20 kts 250°
2026-05-05 11:09 -36.06871 146.95662 551 ft 6 kts 321°
2026-05-05 11:09 -36.06868 146.95658 539 ft 0 kts 351°
2026-05-05 11:10 -36.06863 146.95659 551 ft 8 kts 347°
2026-05-05 11:10 -36.06827 146.95656 544 ft 9 kts 35°
2026-05-05 11:10 -36.06799 146.95813 556 ft 23 kts 78°
2026-05-05 11:10 -36.06774 146.96013 551 ft 28 kts 81°
2026-05-05 11:11 -36.06665 146.96053 567 ft 27 kts 281°
2026-05-05 11:11 -36.06729 146.95541 653 ft 96 kts 264°
2026-05-05 11:11 -36.06894 146.94652 1022 ft 108 kts 245°
2026-05-05 11:11 -36.07567 146.94350 1307 ft 115 kts 155°
2026-05-05 11:12 -36.07869 146.95120 1785 ft 114 kts 68°
2026-05-05 11:12 -36.07612 146.96154 2031 ft 135 kts 72°
2026-05-05 11:12 -36.07264 146.97255 2472 ft 138 kts 70°
2026-05-05 11:12 -36.06842 146.98349 2954 ft 144 kts 61°
2026-05-05 11:13 -36.06128 146.99249 3383 ft 148 kts 44°
2026-05-05 11:13 -36.05349 147.00085 3809 ft 148 kts 41°
2026-05-05 11:13 -36.04543 147.00889 4174 ft 150 kts 42°
2026-05-05 11:13 -36.03890 147.01927 4398 ft 155 kts 58°
2026-05-05 11:14 -36.03225 147.02985 4583 ft 157 kts 52°
2026-05-05 11:14 -36.02438 147.03956 4625 ft 160 kts 46°
2026-05-05 11:14 -36.01655 147.04872 5017 ft 152 kts 48°
2026-05-05 11:14 -36.01031 147.05908 5292 ft 154 kts 61°
2026-05-05 11:15 -36.00431 147.06937 5454 ft 140 kts 61°
2026-05-05 11:15 -35.99879 147.07863 5544 ft 135 kts 60°
2026-05-05 11:15 -35.99315 147.08829 5348 ft 139 kts 60°
2026-05-05 11:15 -35.98755 147.09809 5504 ft 135 kts 61°
2026-05-05 11:16 -35.98213 147.10777 5525 ft 138 kts 62°
2026-05-05 11:16 -35.97695 147.11767 5514 ft 136 kts 62°
2026-05-05 11:16 -35.97192 147.12764 5504 ft 137 kts 62°
2026-05-05 11:16 -35.96683 147.13769 5503 ft 138 kts 62°
2026-05-05 11:17 -35.96174 147.14771 5501 ft 138 kts 62°
2026-05-05 11:17 -35.95666 147.15774 5506 ft 138 kts 62°
2026-05-05 11:17 -35.95159 147.16780 5507 ft 137 kts 64°
2026-05-05 11:17 -35.94699 147.17816 5514 ft 137 kts 68°
2026-05-05 11:18 -35.94275 147.18869 5509 ft 138 kts 68°
2026-05-05 11:18 -35.93850 147.19922 5513 ft 137 kts 68°
2026-05-05 11:18 -35.93430 147.20963 5508 ft 137 kts 68°
2026-05-05 11:18 -35.93006 147.22014 5501 ft 139 kts 68°
2026-05-05 11:19 -35.92557 147.23126 5477 ft 147 kts 68°
2026-05-05 11:19 -35.92099 147.24270 5469 ft 150 kts 68°
2026-05-05 11:19 -35.91636 147.25429 5468 ft 151 kts 68°
2026-05-05 11:19 -35.91171 147.26592 5470 ft 151 kts 68°
2026-05-05 11:20 -35.90707 147.27756 5473 ft 151 kts 68°
2026-05-05 11:20 -35.90241 147.28922 5478 ft 152 kts 68°
2026-05-05 11:20 -35.89776 147.30091 5481 ft 152 kts 68°
2026-05-05 11:20 -35.89317 147.31245 5484 ft 152 kts 68°
2026-05-05 11:21 -35.88852 147.32411 5492 ft 151 kts 68°
2026-05-05 11:21 -35.88389 147.33577 5493 ft 151 kts 68°
2026-05-05 11:21 -35.87926 147.34743 5497 ft 151 kts 68°
2026-05-05 11:21 -35.87465 147.35906 5501 ft 151 kts 68°
2026-05-05 11:22 -35.87002 147.37069 5483 ft 151 kts 68°
2026-05-05 11:22 -35.86538 147.38236 5493 ft 151 kts 68°
2026-05-05 11:22 -35.86085 147.39400 5503 ft 150 kts 68°
2026-05-05 11:22 -35.85637 147.40556 5506 ft 149 kts 68°
2026-05-05 11:23 -35.85191 147.41706 5500 ft 149 kts 68°
2026-05-05 11:23 -35.84744 147.42858 5491 ft 149 kts 68°
2026-05-05 11:23 -35.84297 147.44010 5491 ft 149 kts 68°
2026-05-05 11:23 -35.83850 147.45166 5501 ft 149 kts 68°
2026-05-05 11:24 -35.83403 147.46323 5518 ft 149 kts 68°
2026-05-05 11:24 -35.82939 147.47471 5529 ft 150 kts 65°
2026-05-05 11:24 -35.82382 147.48564 5518 ft 151 kts 61°
2026-05-05 11:24 -35.81823 147.49655 5518 ft 150 kts 61°
2026-05-05 11:25 -35.81275 147.50729 5519 ft 150 kts 61°
2026-05-05 11:25 -35.80720 147.51815 5522 ft 150 kts 61°
2026-05-05 11:25 -35.80164 147.52900 5527 ft 150 kts 61°
2026-05-05 11:25 -35.79607 147.53988 5483 ft 151 kts 61°
2026-05-05 11:26 -35.79048 147.55083 5479 ft 150 kts 61°
2026-05-05 11:26 -35.78492 147.56173 5491 ft 150 kts 61°
2026-05-05 11:26 -35.77937 147.57260 5498 ft 149 kts 61°
2026-05-05 11:26 -35.77383 147.58346 5498 ft 149 kts 61°
2026-05-05 11:27 -35.76826 147.59430 5492 ft 150 kts 62°
2026-05-05 11:27 -35.76264 147.60511 5510 ft 150 kts 62°
2026-05-05 11:27 -35.75703 147.61589 5531 ft 150 kts 62°
2026-05-05 11:27 -35.75148 147.62654 5547 ft 150 kts 62°
2026-05-05 11:28 -35.74586 147.63732 5554 ft 149 kts 62°
2026-05-05 11:28 -35.74025 147.64808 5566 ft 149 kts 62°
2026-05-05 11:28 -35.73465 147.65884 5580 ft 149 kts 61°
2026-05-05 11:28 -35.72912 147.66953 5593 ft 148 kts 62°
2026-05-05 11:29 -35.72360 147.68022 5598 ft 148 kts 61°
2026-05-05 11:29 -35.71810 147.69087 5592 ft 148 kts 62°
2026-05-05 11:29 -35.71257 147.70158 5606 ft 148 kts 62°
2026-05-05 11:29 -35.70708 147.71223 5544 ft 148 kts 62°
2026-05-05 11:30 -35.70156 147.72294 5552 ft 148 kts 62°
2026-05-05 11:30 -35.69607 147.73361 5530 ft 148 kts 62°
2026-05-05 11:30 -35.69055 147.74429 5531 ft 147 kts 62°
2026-05-05 11:30 -35.68507 147.75491 5509 ft 147 kts 62°
2026-05-05 11:31 -35.67959 147.76554 5524 ft 147 kts 62°
2026-05-05 11:31 -35.67413 147.77616 5520 ft 147 kts 62°
2026-05-05 11:31 -35.66866 147.78677 5519 ft 147 kts 62°
2026-05-05 11:31 -35.66320 147.79741 5516 ft 147 kts 62°
2026-05-05 11:32 -35.65775 147.80803 5519 ft 147 kts 62°
2026-05-05 11:32 -35.65236 147.81852 5513 ft 147 kts 62°
2026-05-05 11:32 -35.64692 147.82911 5514 ft 147 kts 62°
2026-05-05 11:32 -35.64146 147.83974 5516 ft 147 kts 62°
2026-05-05 11:33 -35.63601 147.85035 5526 ft 147 kts 62°
2026-05-05 11:33 -35.63052 147.86095 5517 ft 147 kts 62°
2026-05-05 11:33 -35.62581 147.87002 5523 ft 147 kts 62°
2026-05-05 11:33 -35.62086 147.87954 5523 ft 148 kts 62°
2026-05-05 11:34 -35.61555 147.88979 5511 ft 148 kts 62°
2026-05-05 11:34 -35.61215 147.89635 5521 ft 148 kts 62°
2026-05-05 11:34 -35.60663 147.90702 5522 ft 148 kts 62°
2026-05-05 11:34 -35.60118 147.91754 5520 ft 148 kts 62°
2026-05-05 11:35 -35.59566 147.92820 5516 ft 147 kts 62°
2026-05-05 11:35 -35.59018 147.93875 5517 ft 146 kts 62°
2026-05-05 11:35 -35.58478 147.94921 5520 ft 144 kts 62°
2026-05-05 11:35 -35.57939 147.95959 5515 ft 144 kts 62°
2026-05-05 11:36 -35.57397 147.96992 5520 ft 144 kts 62°
2026-05-05 11:36 -35.56859 147.98026 5514 ft 144 kts 62°
2026-05-05 11:36 -35.56322 147.99063 5521 ft 144 kts 62°
2026-05-05 11:36 -35.55780 148.00100 5514 ft 144 kts 62°
2026-05-05 11:37 -35.55244 148.01140 5516 ft 144 kts 62°
2026-05-05 11:37 -35.54711 148.02181 5514 ft 144 kts 62°
2026-05-05 11:37 -35.54175 148.03220 5519 ft 144 kts 62°
2026-05-05 11:37 -35.53636 148.04256 5515 ft 144 kts 62°
2026-05-05 11:38 -35.53102 148.05290 5523 ft 143 kts 62°
2026-05-05 11:38 -35.52564 148.06327 5515 ft 144 kts 62°
2026-05-05 11:38 -35.52027 148.07358 5532 ft 143 kts 62°
2026-05-05 11:38 -35.51490 148.08394 5518 ft 144 kts 62°
2026-05-05 11:39 -35.50965 148.09419 5529 ft 144 kts 62°
2026-05-05 11:39 -35.50435 148.10460 5519 ft 144 kts 62°
2026-05-05 11:39 -35.49909 148.11498 5431 ft 145 kts 62°
2026-05-05 11:39 -35.49375 148.12562 5444 ft 147 kts 62°
2026-05-05 11:40 -35.48851 148.13616 5647 ft 142 kts 62°
2026-05-05 11:40 -35.48340 148.14645 5834 ft 141 kts 62°
2026-05-05 11:40 -35.47836 148.15665 6025 ft 139 kts 62°
2026-05-05 11:40 -35.47335 148.16680 6213 ft 139 kts 62°
2026-05-05 11:41 -35.46839 148.17697 6391 ft 139 kts 62°
2026-05-05 11:41 -35.46344 148.18716 6575 ft 139 kts 62°
2026-05-05 11:41 -35.45838 148.19721 6738 ft 139 kts 62°
2026-05-05 11:41 -35.45328 148.20726 6849 ft 139 kts 62°
2026-05-05 11:42 -35.44809 148.21736 6911 ft 142 kts 62°
2026-05-05 11:42 -35.44284 148.22768 6804 ft 144 kts 62°
2026-05-05 11:42 -35.43762 148.23803 6451 ft 145 kts 62°
2026-05-05 11:42 -35.43216 148.24881 6207 ft 148 kts 62°
2026-05-05 11:43 -35.42704 148.25879 6323 ft 137 kts 62°
2026-05-05 11:43 -35.42195 148.26870 6549 ft 137 kts 62°
2026-05-05 11:43 -35.41686 148.27862 6813 ft 137 kts 62°
2026-05-05 11:43 -35.41173 148.28855 7084 ft 139 kts 62°
2026-05-05 11:44 -35.40657 148.29846 7349 ft 140 kts 62°
2026-05-05 11:44 -35.40130 148.30853 7537 ft 141 kts 62°
2026-05-05 11:44 -35.39597 148.31870 7486 ft 142 kts 61°
2026-05-05 11:44 -35.39060 148.32886 7465 ft 142 kts 61°
2026-05-05 11:45 -35.38519 148.33898 7552 ft 141 kts 61°
2026-05-05 11:45 -35.37975 148.34912 7661 ft 142 kts 61°
2026-05-05 11:45 -35.37434 148.35933 7620 ft 143 kts 61°
2026-05-05 11:45 -35.36898 148.36950 7588 ft 143 kts 61°
2026-05-05 11:46 -35.36360 148.37967 7638 ft 142 kts 61°
2026-05-05 11:46 -35.35829 148.38986 7512 ft 142 kts 61°
2026-05-05 11:46 -35.35299 148.40013 7654 ft 144 kts 61°
2026-05-05 11:46 -35.34775 148.41041 7518 ft 142 kts 61°
2026-05-05 11:47 -35.34247 148.42071 7620 ft 143 kts 61°
2026-05-05 11:47 -35.33725 148.43093 7436 ft 142 kts 61°
2026-05-05 11:47 -35.33205 148.44104 7634 ft 142 kts 61°
2026-05-05 11:47 -35.32684 148.45123 7548 ft 140 kts 61°
2026-05-05 11:48 -35.31659 148.47130 7160 ft 134 kts 61°
2026-05-05 11:48 -35.31166 148.48099 7178 ft 139 kts 61°
2026-05-05 11:48 -35.30645 148.49087 7175 ft 139 kts 61°
2026-05-05 11:49 -35.30122 148.50072 7170 ft 138 kts 61°
2026-05-05 11:49 -35.29602 148.51059 7174 ft 138 kts 61°
2026-05-05 11:49 -35.29079 148.52043 7176 ft 139 kts 61°
2026-05-05 11:49 -35.28555 148.53028 7172 ft 138 kts 61°
2026-05-05 11:50 -35.28030 148.54012 7178 ft 138 kts 61°
2026-05-05 11:50 -35.27504 148.54996 7172 ft 138 kts 61°
2026-05-05 11:50 -35.26979 148.55982 7174 ft 139 kts 61°
2026-05-05 11:50 -35.26454 148.56969 7170 ft 138 kts 61°
2026-05-05 11:51 -35.25929 148.57956 7172 ft 138 kts 61°
2026-05-05 11:51 -35.25403 148.58942 7175 ft 139 kts 61°
2026-05-05 11:51 -35.24879 148.59930 7177 ft 139 kts 61°
2026-05-05 11:51 -35.24357 148.60916 7177 ft 138 kts 61°
2026-05-05 11:52 -35.23837 148.61904 7173 ft 139 kts 61°
2026-05-05 11:52 -35.23316 148.62890 7174 ft 137 kts 61°
2026-05-05 11:52 -35.22795 148.63876 7172 ft 138 kts 61°
2026-05-05 11:52 -35.22274 148.64859 7174 ft 138 kts 61°
2026-05-05 11:53 -35.21753 148.65841 7168 ft 137 kts 61°
2026-05-05 11:53 -35.21233 148.66818 7165 ft 137 kts 61°
2026-05-05 11:53 -35.20713 148.67796 7167 ft 138 kts 61°
2026-05-05 11:53 -35.20198 148.68763 7168 ft 138 kts 61°
2026-05-05 11:54 -35.19677 148.69741 7171 ft 137 kts 61°
2026-05-05 11:54 -35.19156 148.70720 7173 ft 138 kts 61°
2026-05-05 11:54 -35.18633 148.71701 7173 ft 137 kts 61°
2026-05-05 11:54 -35.18113 148.72681 7176 ft 138 kts 61°
2026-05-05 11:55 -35.17591 148.73665 7173 ft 138 kts 61°
2026-05-05 11:55 -35.17059 148.74660 7170 ft 138 kts 61°
2026-05-05 11:55 -35.16543 148.75629 7166 ft 138 kts 61°
2026-05-05 11:55 -35.16015 148.76620 7164 ft 140 kts 61°
2026-05-05 11:56 -35.15483 148.77614 7166 ft 139 kts 61°
2026-05-05 11:56 -35.14953 148.78605 7167 ft 140 kts 61°
2026-05-05 11:56 -35.14422 148.79597 7171 ft 140 kts 61°
2026-05-05 11:56 -35.13890 148.80588 7169 ft 139 kts 61°
2026-05-05 11:57 -35.13360 148.81579 7170 ft 139 kts 61°
2026-05-05 11:57 -35.12830 148.82569 7172 ft 140 kts 61°
2026-05-05 11:57 -35.12300 148.83559 7169 ft 139 kts 61°
2026-05-05 11:57 -35.11949 148.84217 7175 ft 140 kts 61°
2026-05-05 11:58 -35.11419 148.85207 7173 ft 139 kts 61°
2026-05-05 11:58 -35.10890 148.86198 7171 ft 139 kts 61°
2026-05-05 11:58 -35.10370 148.87195 7167 ft 139 kts 61°
2026-05-05 11:58 -35.09856 148.88196 7168 ft 139 kts 61°
2026-05-05 11:59 -35.09342 148.89198 7167 ft 140 kts 61°
2026-05-05 11:59 -35.08827 148.90202 7168 ft 139 kts 61°
2026-05-05 11:59 -35.08313 148.91205 7166 ft 139 kts 61°
2026-05-05 11:59 -35.07800 148.92206 7168 ft 138 kts 61°
2026-05-05 12:00 -35.07291 148.93205 7171 ft 139 kts 61°
2026-05-05 12:00 -35.06781 148.94202 7171 ft 139 kts 61°
2026-05-05 12:00 -35.06277 148.95186 7171 ft 138 kts 61°
2026-05-05 12:00 -35.05767 148.96183 7172 ft 138 kts 61°
2026-05-05 12:01 -35.05255 148.97179 7168 ft 138 kts 61°
2026-05-05 12:01 -35.04745 148.98175 7169 ft 138 kts 61°
2026-05-05 12:01 -35.04234 148.99174 7167 ft 139 kts 61°
2026-05-05 12:01 -35.03724 149.00171 7168 ft 138 kts 61°
2026-05-05 12:02 -35.03214 149.01168 7167 ft 138 kts 61°
2026-05-05 12:02 -35.02704 149.02167 7169 ft 138 kts 61°
2026-05-05 12:02 -35.02194 149.03164 7169 ft 138 kts 61°
2026-05-05 12:02 -35.01686 149.04161 7164 ft 139 kts 61°
2026-05-05 12:03 -35.01173 149.05162 7171 ft 139 kts 61°
2026-05-05 12:03 -35.00659 149.06161 7170 ft 139 kts 61°
2026-05-05 12:03 -35.00143 149.07167 7170 ft 139 kts 62°
2026-05-05 12:03 -34.99629 149.08166 7167 ft 139 kts 61°
2026-05-05 12:04 -34.99114 149.09167 7165 ft 140 kts 62°
2026-05-05 12:04 -34.98600 149.10167 7165 ft 139 kts 61°
2026-05-05 12:04 -34.98086 149.11167 7165 ft 139 kts 62°
2026-05-05 12:04 -34.97571 149.12165 7164 ft 139 kts 62°
2026-05-05 12:05 -34.97057 149.13164 7171 ft 139 kts 62°
2026-05-05 12:05 -34.96543 149.14163 7171 ft 138 kts 62°
2026-05-05 12:05 -34.96036 149.15149 7171 ft 139 kts 62°
2026-05-05 12:05 -34.95517 149.16162 7171 ft 139 kts 62°
2026-05-05 12:06 -34.95004 149.17162 7166 ft 139 kts 62°
2026-05-05 12:06 -34.94491 149.18162 7165 ft 139 kts 62°
2026-05-05 12:06 -34.93984 149.19149 7164 ft 139 kts 62°
2026-05-05 12:06 -34.93471 149.20154 7165 ft 140 kts 61°
2026-05-05 12:07 -34.92962 149.21165 7167 ft 140 kts 62°
2026-05-05 12:07 -34.92452 149.22181 7168 ft 140 kts 62°
2026-05-05 12:07 -34.91945 149.23193 7169 ft 140 kts 62°
2026-05-05 12:07 -34.91437 149.24203 7167 ft 140 kts 62°
2026-05-05 12:08 -34.90928 149.25216 7165 ft 140 kts 62°
2026-05-05 12:08 -34.90421 149.26225 7169 ft 140 kts 62°
2026-05-05 12:08 -34.89914 149.27236 7169 ft 139 kts 62°
2026-05-05 12:08 -34.89406 149.28247 7168 ft 139 kts 62°
2026-05-05 12:09 -34.88899 149.29258 7169 ft 139 kts 62°
2026-05-05 12:09 -34.88392 149.30269 7170 ft 140 kts 62°
2026-05-05 12:09 -34.87884 149.31280 7169 ft 140 kts 62°
2026-05-05 12:09 -34.87376 149.32290 7167 ft 140 kts 62°
2026-05-05 12:10 -34.86868 149.33300 7172 ft 140 kts 62°
2026-05-05 12:10 -34.86359 149.34311 7174 ft 140 kts 62°
2026-05-05 12:10 -34.85849 149.35322 7172 ft 140 kts 62°
2026-05-05 12:10 -34.85340 149.36333 7172 ft 140 kts 62°
2026-05-05 12:11 -34.84838 149.37332 7167 ft 140 kts 62°
2026-05-05 12:11 -34.84331 149.38342 7169 ft 140 kts 62°
2026-05-05 12:11 -34.83822 149.39353 7168 ft 140 kts 62°
2026-05-05 12:11 -34.83315 149.40362 7170 ft 140 kts 62°
2026-05-05 12:12 -34.82806 149.41374 7172 ft 140 kts 62°
2026-05-05 12:12 -34.82299 149.42382 7171 ft 140 kts 62°
2026-05-05 12:12 -34.81791 149.43392 7169 ft 140 kts 62°
2026-05-05 12:12 -34.81284 149.44401 7170 ft 140 kts 62°
2026-05-05 12:13 -34.80777 149.45410 7173 ft 140 kts 62°
2026-05-05 12:13 -34.80270 149.46419 7173 ft 139 kts 62°
2026-05-05 12:13 -34.79763 149.47428 7175 ft 139 kts 62°
2026-05-05 12:13 -34.79256 149.48447 7175 ft 142 kts 61°
2026-05-05 12:14 -34.78751 149.49493 7174 ft 143 kts 62°
2026-05-05 12:14 -34.78248 149.50541 7175 ft 144 kts 62°
2026-05-05 12:14 -34.77743 149.51586 7174 ft 143 kts 62°
2026-05-05 12:14 -34.77239 149.52632 7174 ft 143 kts 62°
2026-05-05 12:15 -34.76735 149.53681 7177 ft 144 kts 62°
2026-05-05 12:15 -34.76231 149.54728 7177 ft 143 kts 62°
2026-05-05 12:15 -34.75726 149.55773 7177 ft 143 kts 62°
2026-05-05 12:15 -34.75221 149.56819 7177 ft 144 kts 62°
2026-05-05 12:16 -34.74724 149.57852 7172 ft 143 kts 62°
2026-05-05 12:16 -34.74221 149.58896 7172 ft 143 kts 62°
2026-05-05 12:16 -34.73718 149.59942 7172 ft 144 kts 62°
2026-05-05 12:16 -34.73217 149.60984 7176 ft 142 kts 62°
2026-05-05 12:17 -34.72715 149.62020 7177 ft 143 kts 62°
2026-05-05 12:17 -34.72212 149.63057 7179 ft 142 kts 62°
2026-05-05 12:17 -34.71710 149.64095 7179 ft 143 kts 62°
2026-05-05 12:17 -34.71208 149.65135 7180 ft 142 kts 62°
2026-05-05 12:18 -34.70706 149.66170 7178 ft 142 kts 62°
2026-05-05 12:18 -34.70204 149.67207 7181 ft 142 kts 62°
2026-05-05 12:18 -34.69702 149.68242 7181 ft 143 kts 62°
2026-05-05 12:18 -34.69200 149.69277 7181 ft 141 kts 62°
2026-05-05 12:19 -34.68698 149.70312 7177 ft 142 kts 62°
2026-05-05 12:19 -34.68197 149.71352 7175 ft 142 kts 62°
2026-05-05 12:19 -34.67695 149.72389 7179 ft 142 kts 62°
2026-05-05 12:19 -34.67197 149.73414 7181 ft 143 kts 62°
2026-05-05 12:20 -34.66696 149.74452 7182 ft 142 kts 62°
2026-05-05 12:20 -34.66195 149.75489 7182 ft 142 kts 62°
2026-05-05 12:20 -34.65693 149.76523 7180 ft 142 kts 62°
2026-05-05 12:20 -34.65191 149.77560 7178 ft 143 kts 62°
2026-05-05 12:21 -34.64695 149.78614 7180 ft 145 kts 62°
2026-05-05 12:21 -34.64206 149.79691 7182 ft 146 kts 62°
2026-05-05 12:21 -34.63734 149.80779 7181 ft 145 kts 63°
2026-05-05 12:21 -34.63268 149.81867 7183 ft 146 kts 63°
2026-05-05 12:22 -34.62801 149.82958 7182 ft 145 kts 63°
2026-05-05 12:22 -34.62335 149.84046 7183 ft 145 kts 63°
2026-05-05 12:22 -34.61868 149.85137 7183 ft 146 kts 63°
2026-05-05 12:22 -34.61402 149.86225 7180 ft 145 kts 63°
2026-05-05 12:23 -34.60936 149.87315 7184 ft 146 kts 63°
2026-05-05 12:23 -34.60470 149.88404 7183 ft 145 kts 63°
2026-05-05 12:23 -34.60016 149.89472 7183 ft 143 kts 63°
2026-05-05 12:23 -34.59568 149.90548 7185 ft 143 kts 63°
2026-05-05 12:24 -34.59122 149.91622 7185 ft 142 kts 63°
2026-05-05 12:24 -34.58670 149.92698 7182 ft 143 kts 63°
2026-05-05 12:24 -34.58218 149.93775 7183 ft 143 kts 63°
2026-05-05 12:24 -34.57769 149.94849 7180 ft 142 kts 63°
2026-05-05 12:25 -34.57319 149.95923 7182 ft 143 kts 63°
2026-05-05 12:25 -34.56867 149.96999 7181 ft 144 kts 63°
2026-05-05 12:25 -34.56416 149.98075 7182 ft 142 kts 63°
2026-05-05 12:25 -34.55968 149.99149 7182 ft 143 kts 63°
2026-05-05 12:26 -34.55518 150.00224 7176 ft 143 kts 63°
2026-05-05 12:26 -34.55067 150.01302 7177 ft 143 kts 63°
2026-05-05 12:26 -34.54621 150.02376 7177 ft 142 kts 63°
2026-05-05 12:26 -34.54174 150.03450 7179 ft 143 kts 63°
2026-05-05 12:27 -34.53723 150.04527 7181 ft 142 kts 63°
2026-05-05 12:27 -34.53274 150.05600 7180 ft 142 kts 63°
2026-05-05 12:27 -34.52827 150.06672 7174 ft 142 kts 63°
2026-05-05 12:27 -34.52378 150.07747 7172 ft 144 kts 63°
2026-05-05 12:28 -34.51928 150.08820 7179 ft 143 kts 63°
2026-05-05 12:28 -34.51485 150.09879 7175 ft 142 kts 63°
2026-05-05 12:28 -34.51036 150.10952 7177 ft 143 kts 63°
2026-05-05 12:28 -34.50583 150.12027 7178 ft 143 kts 63°
2026-05-05 12:29 -34.50134 150.13100 7176 ft 142 kts 63°
2026-05-05 12:29 -34.49688 150.14173 7174 ft 143 kts 63°
2026-05-05 12:29 -34.49239 150.15247 7173 ft 143 kts 63°
2026-05-05 12:29 -34.48790 150.16319 7178 ft 142 kts 63°
2026-05-05 12:30 -34.48344 150.17391 7167 ft 142 kts 63°
2026-05-05 12:30 -34.47900 150.18457 7172 ft 141 kts 63°
2026-05-05 12:30 -34.47451 150.19526 7175 ft 142 kts 63°
2026-05-05 12:30 -34.47014 150.20576 7172 ft 141 kts 63°
2026-05-05 12:31 -34.46564 150.21655 7165 ft 142 kts 63°
2026-05-05 12:31 -34.46124 150.22708 7168 ft 142 kts 63°
2026-05-05 12:31 -34.45677 150.23775 7170 ft 142 kts 63°
2026-05-05 12:31 -34.45235 150.24838 7168 ft 141 kts 63°
2026-05-05 12:32 -34.44791 150.25905 7169 ft 142 kts 63°
2026-05-05 12:32 -34.44342 150.26973 7169 ft 142 kts 63°
2026-05-05 12:32 -34.43896 150.28037 7169 ft 141 kts 63°
2026-05-05 12:32 -34.43452 150.29101 7163 ft 142 kts 63°
2026-05-05 12:33 -34.43006 150.30167 7158 ft 143 kts 63°
2026-05-05 12:33 -34.42558 150.31234 7159 ft 142 kts 63°
2026-05-05 12:33 -34.42113 150.32297 7159 ft 141 kts 63°
2026-05-05 12:33 -34.41668 150.33361 7161 ft 142 kts 63°
2026-05-05 12:34 -34.41220 150.34429 7161 ft 141 kts 63°
2026-05-05 12:34 -34.40776 150.35494 7164 ft 141 kts 63°
2026-05-05 12:34 -34.40336 150.36558 7164 ft 142 kts 63°
2026-05-05 12:34 -34.39890 150.37624 7162 ft 142 kts 63°
2026-05-05 12:35 -34.39445 150.38689 7161 ft 142 kts 63°
2026-05-05 12:35 -34.39003 150.39749 7158 ft 140 kts 63°
2026-05-05 12:35 -34.38566 150.40797 7153 ft 142 kts 63°
2026-05-05 12:35 -34.38118 150.41865 7154 ft 142 kts 63°
2026-05-05 12:36 -34.37678 150.42936 7151 ft 144 kts 63°
2026-05-05 12:36 -34.37251 150.44029 7153 ft 144 kts 63°
2026-05-05 12:36 -34.36822 150.45123 7152 ft 144 kts 63°
2026-05-05 12:36 -34.36391 150.46219 7150 ft 144 kts 63°
2026-05-05 12:37 -34.35951 150.47318 7155 ft 145 kts 63°
2026-05-05 12:37 -34.35507 150.48416 7156 ft 146 kts 63°
2026-05-05 12:37 -34.35059 150.49511 7152 ft 145 kts 63°
2026-05-05 12:37 -34.34613 150.50607 7155 ft 146 kts 63°
2026-05-05 12:38 -34.34170 150.51707 7154 ft 145 kts 63°
2026-05-05 12:38 -34.33723 150.52804 7143 ft 146 kts 63°
2026-05-05 12:38 -34.33275 150.53901 7143 ft 146 kts 63°
2026-05-05 12:38 -34.32831 150.55000 7146 ft 146 kts 63°
2026-05-05 12:39 -34.32385 150.56097 7144 ft 144 kts 63°
2026-05-05 12:39 -34.31937 150.57189 7144 ft 146 kts 63°
2026-05-05 12:39 -34.31498 150.58270 7144 ft 145 kts 63°
2026-05-05 12:39 -34.31055 150.59367 7143 ft 145 kts 63°
2026-05-05 12:40 -34.30609 150.60463 7146 ft 146 kts 63°
2026-05-05 12:40 -34.30163 150.61560 7141 ft 145 kts 63°
2026-05-05 12:40 -34.29719 150.62658 7142 ft 145 kts 63°
2026-05-05 12:40 -34.29251 150.63750 7127 ft 149 kts 57°
2026-05-05 12:41 -34.28608 150.64713 7139 ft 140 kts 49°
2026-05-05 12:41 -34.27960 150.65630 7139 ft 144 kts 49°
2026-05-05 12:41 -34.27308 150.66553 7135 ft 144 kts 49°
2026-05-05 12:41 -34.26627 150.67449 7157 ft 144 kts 46°
2026-05-05 12:42 -34.25947 150.68343 7131 ft 145 kts 46°
2026-05-05 12:42 -34.25270 150.69234 7021 ft 144 kts 46°
2026-05-05 12:42 -34.24596 150.70119 6738 ft 142 kts 46°
2026-05-05 12:42 -34.23929 150.71001 6493 ft 141 kts 46°
2026-05-05 12:43 -34.23265 150.71873 6196 ft 139 kts 46°
2026-05-05 12:43 -34.22601 150.72723 5687 ft 139 kts 46°
2026-05-05 12:43 -34.21942 150.73560 5402 ft 136 kts 46°
2026-05-05 12:43 -34.21282 150.74381 5173 ft 135 kts 46°
2026-05-05 12:44 -34.20844 150.74918 5042 ft 136 kts 46°
2026-05-05 12:44 -34.20153 150.75735 4829 ft 141 kts 46°
2026-05-05 12:44 -34.19202 150.76794 4585 ft 139 kts 46°
2026-05-05 12:44 -34.18485 150.77586 4429 ft 139 kts 46°
2026-05-05 12:45 -34.18003 150.78118 4332 ft 138 kts 46°
2026-05-05 12:45 -34.17292 150.78890 4189 ft 139 kts 46°
2026-05-05 12:45 -34.16576 150.79668 4048 ft 139 kts 46°
2026-05-05 12:45 -34.15866 150.80445 3929 ft 138 kts 46°
2026-05-05 12:46 -34.15156 150.81213 3911 ft 136 kts 49°
2026-05-05 12:46 -34.14456 150.81991 3853 ft 137 kts 49°
2026-05-05 12:46 -34.13865 150.82964 3771 ft 150 kts 64°
2026-05-05 12:46 -34.13368 150.83940 3523 ft 121 kts 64°
2026-05-05 12:47 -34.12951 150.84733 3175 ft 107 kts 65°
2026-05-05 12:47 -34.12545 150.85509 2405 ft 111 kts 65°
2026-05-05 12:47 -34.12150 150.86294 1930 ft 107 kts 70°
2026-05-05 12:47 -34.11890 150.87130 1594 ft 107 kts 82°
2026-05-05 12:48 -34.11715 150.88032 1198 ft 112 kts 89°
2026-05-05 12:48 -34.11476 150.88852 1124 ft 101 kts 43°
2026-05-05 12:48 -34.10883 150.89322 1005 ft 106 kts 16°
2026-05-05 12:48 -34.10138 150.89568 732 ft 115 kts
2026-05-05 12:49 -34.09382 150.89677 611 ft 99 kts 330°
2026-05-05 12:49 -34.08719 150.89589 573 ft 96 kts
2026-05-05 12:49 -34.07985 150.89556 537 ft 120 kts 337°
2026-05-05 12:49 -34.07163 150.89148 499 ft 135 kts 341°
2026-05-05 12:50 -34.06290 150.88946 574 ft 127 kts 356°
2026-05-05 12:50 -34.05382 150.88836 504 ft 133 kts
2026-05-05 12:50 -34.04605 150.88679 520 ft 110 kts 355°
2026-05-05 12:50 -34.03772 150.88604 475 ft 130 kts 358°
2026-05-05 12:51 -34.02860 150.88615 295 ft 130 kts
2026-05-05 12:51 -34.01948 150.88714 332 ft 127 kts 17°
2026-05-05 12:51 -34.01186 150.89200 326 ft 123 kts 36°
2026-05-05 12:51 -34.00760 150.89966 356 ft 107 kts 88°
2026-05-05 12:52 -34.00616 150.91018 260 ft 136 kts 85°
2026-05-05 12:52 -34.00381 150.92046 363 ft 122 kts 69°
2026-05-05 12:52 -34.00160 150.93097 332 ft 139 kts 83°
2026-05-05 12:52 -33.99828 150.94175 319 ft 136 kts 67°
2026-05-05 12:53 -33.99459 150.95129 427 ft 103 kts 65°
2026-05-05 12:53 -33.99010 150.95430 556 ft 59 kts 333°
2026-05-05 12:53 -33.98713 150.94921 496 ft 103 kts 278°
2026-05-05 12:53 -33.98956 150.94372 609 ft 76 kts 121°
2026-05-05 12:54 -33.99541 150.95171 260 ft 25 kts 129°
2026-05-05 12:54 -33.99586 150.95298 247 ft 14 kts 46°
2026-05-05 12:54 -33.99563 150.95356 246 ft 2 kts 123°
2026-05-05 12:55 -33.99564 150.95360 241 ft 0 kts 121°
2026-05-05 13:07 -33.99490 150.95254 240 ft 0 kts 121°
2026-05-05 13:07 -33.99504 150.95244 241 ft 0 kts 121°
2026-05-05 13:08 -33.99502 150.95246 241 ft 0 kts 121°